Regional Weather Roundup
Issued by NWS

Home | Current Version | Previous Version | Graphics & Text | Print | Product List | Glossary On
Versions: 1 2 3 4 5 6 7 8 9 10 11 12 13 14 15 16 17 18 19 20 21 22 23 24 25 26 27
000
ASUS45 KCYS 202010
RWRWY

WYOMING REGIONAL WEATHER ROUNDUP
NATIONAL WEATHER SERVICE CHEYENNE WY
200 PM MDT SUN APR 20 2014

NOTE:  "FAIR" INDICATES FEW OR NO CLOUDS BELOW 12,000 FEET
WITH NO SIGNIFICANT WEATHER AND/OR OBSTRUCTIONS TO VISIBILITY.

WYZ001-202100-
YELLOWSTONE NATIONAL PARK

CITY           SKY/WX    TMP DP  RH WIND       PRES   REMARKS
LK YELLOWSTONE   N/A     48  20  32 VRB5      30.22S
W YELLOWSTONE  NOT AVBL

$$
WYZ002>013-054>058-071-098>099-202100-
NORTHERN WYOMING

CITY           SKY/WX    TMP DP  RH WIND       PRES   REMARKS
JACKSON        SUNNY     54  21  28 SW8       30.19R
CODY           MOSUNNY   61  32  33 N9G18     30.08S
GREYBULL       SUNNY     69  27  20 N14       30.02R
WORLAND        SUNNY     68  31  25 N14       30.01S
SHERIDAN         N/A     59  25  27 NW12G20     N/A
BUFFALO        SUNNY     59  30  33 N16G25    30.09S
GILLETTE       PTSUNNY   61  30  31 N14       30.07S
HULETT         FAIR      59  28  31 NW12G17   30.06
NEWCASTLE      FAIR      64  34  32 NW22G28   30.00

$$
WYZ014>020-022>026-101>103-202100-
CENTRAL WYOMING

CITY           SKY/WX    TMP DP  RH WIND       PRES   REMARKS
BIG PINEY      SUNNY     60  15  17 W10G24    30.18S
PINEDALE       CLEAR     55  27  33 NW16G26   30.19S
DUBOIS         FAIR      55  18  22 N22       30.14S
LANDER         SUNNY     69  19  15 NW21G26   30.03F
RIVERTON       MOSUNNY   68  21  16 VRB3      30.05S
CASPER         PTSUNNY   70  26  19 W15G23    30.04S
DOUGLAS        MOSUNNY   70  27  20 W12G20    30.02S

$$
WYZ021-027>030-104>119-202100-
SOUTHERN WYOMING

CITY           SKY/WX    TMP DP  RH WIND       PRES   REMARKS
EVANSTON       MOSUNNY   63  26  24 W18G24    30.21S
KEMMERER       CLEAR     59  23  25 W21G36    30.20S
FORT BRIDGER   FAIR      63  24  23 NW18G26   30.20F
ROCK SPRINGS   MOSUNNY   68  21  16 W23G32    30.14F
DIXON          RAIN      54  37  52 W25G32    30.19R
RAWLINS        PTSUNNY   65  23  20 W10G25    30.13F
SARATOGA       CLOUDY    64  28  25 NW17G23   30.15S
LARAMIE        CLOUDY    59  26  28 W23G30    30.12F
CHEYENNE       MOSUNNY   68  22  17 W13G24    30.06F
TORRINGTON     SUNNY     75  31  19 NW9G21    29.96F
PINE BLUFFS    FAIR      72  30  21 N14G25    30.02F

$$



USA.gov is the U.S. government's official web portal to all federal, state and local government web resources and services.